Location: F M Corners
(41.2198°N, 80.4709°W)
Time: 17:58:26
(UTC+00:00)

CZ-2D R/B - Pass Details

Date: 29 October 2020
Orbit: 522 x 537 km, 97.4° (Epoch: 28 November)

Event Time Altitude Azimuth Distance (km) Brightness Sun altitude
Rises 23:40:10 0° 165° (SSE) 2,647 6.7 -15.5°
Reaches altitude 10° 23:42:15 10° 164° (SSE) 1,761 5.8 -15.9°
Maximum altitude 23:46:03 82° 79° (E) 534 3.1 -16.6°
Drops below altitude 10° 23:49:52 10° 350° (N) 1,769 6.0 -17.3°
Sets 23:51:59 0° 349° (N) 2,661 6.9 -17.7°
